Other Surface Observations
Issued by NWS Charleston, SC

Home | Current Version | Previous Version | Text Only | Print | Product List | Glossary On
Versions: 1 2 3 4 5 6 7 8 9 10 11 12 13 14 15 16 17 18 19 20 21 22 23 24 25 26 27 28 29 30 31 32 33 34 35 36 37 38 39 40 41 42 43 44 45 46 47 48 49 50
773
SXUS52 KCHS 070127
OSOCHS

MARINE OBSERVATIONS
NATIONAL WEATHER SERVICE CHARLESTON SC
800 PM EST SAT FEB 06 2016

...DOWNTOWN CHARLESTON AND HARBOR...

CITY           SKY/WX    TMP DP  RH WIND       PRES   REMARKS
WATERFRONT PRK   N/A     46  42  86 N14       30.05F

...LAKE MOULTRIE...

CITY           SKY/WX    TMP DP  RH WIND       PRES   REMARKS
PINOPOLIS        N/A     48  36  61 N15       30.16F

...LAKE AND SUPPLEMENTAL COASTAL OBSERVATIONS...

STATION/POSITION TIME  TEMP    WIND        PRES    WAVE   SWELL
                       AIR SEA DIR/SP/G            HT/PER HT/PER/DIR
                 (UTC) (F)     (DEG/KT/KT) (MB)    (FT/S) (FT/S/D)
FORT PULASKI     0100   44 54  360/ 14/ 19 1021.3F
SAPELO ISLAND    0100   47     360/ 17     1020.0F
WINYAH BAY       0045   43      30/  6     1022.0S
LAKE MURRAY      0100   48      50/  4/  8 1022.7F
ACE BASIN NERRS  0000   45      20/  5     1022.0


...C-MAN AND BUOY OBSERVATIONS...

STATION/POSITION TIME  TEMP    WIND        PRES    WAVE   SWELL
                       AIR SEA DIR/SP/G            HT/PER HT/PER/DIR
                 (UTC) (F)     (DEG/KT/KT) (MB)    (FT/S) (FT/S/D)
BUOY 41004       0050   53 64   20/ 25/ 31 1019.7F   7/ 6   3/10
BUOY 41008       0050   50 56   30/ 25/ 29 1019.2F   8/ 6   2/ 90/ 9
FOLLY BEACH CMAN 0100   44      20/ 16/ 20 1022.5F
CAPERS NS BUOY   0008   45      20/ 17/ 21 1022.9F
FRIPP NS BUOY    0000   49      10/ 19/ 23 1021.2F
5E ST. MARYS GA  0021      57                N/A     7/ 6   2/ 90/11


STATION/POSITION TIME  TEMP    WIND        PRES    WAVE   SWELL
                       AIR SEA DIR/SP/G            HT/PER HT/PER/DIR
                 (UTC) (F)     (DEG/KT/KT) (MB)    (FT/S) (FT/S/D)
FRYING PAN BUOY  0100   55 68   10/ 23/ 29 1021.8F
BUOY 41025       0050   51 71  360/ 23/ 27 1024.5F   6/10   5/ 80/10
CAPE LOOKOUT NC  NOT AVBL
BUOY 41002       0050   62 69   80/ 14/ 17   N/A     7/11   7/ 30/11
BUOY 41010       0020   66 75              1017.3F
ST AUGUSTINE FL  0100   53 58  350/ 28/ 32 1018.1R

$$




USA.gov is the U.S. government's official web portal to all federal, state and local government web resources and services.